This demonstration page uses our WeatherBlox Daily Observations layout. Learn more.

Left ArrowRight Arrow

41.12389, -100.76542

Hourly Observations for July 16, 2022

Temp ( °F °C ) Dew Point ( °F °C ) Humidity (%) Winds ( mph kmh ) Pressure ( in mb ) Visibility ( mi km ) Precip ( " mm )
12:53 am 00:53 Mostly Clear 81 27.2 65 18.3 58 58 NW 8 13 30.01 1016 10 16 0.00 0.00
1:53 am 01:53 Mostly Cloudy 77 25 67 19.4 71 71 NNW 6 9 29.99 1016 10 16 0.00 0.00
2:53 am 02:53 Partly Cloudy with Light Rain 75 23.9 64 17.8 69 69 NW 5 7 29.96 1015 10 16 0.00 0.00
3:53 am 03:53 Partly Cloudy 74 23.3 65 18.3 74 74 ESE 8 13 29.91 1013 10 16 0.00 0.00
4:53 am 04:53 Mostly Cloudy with Light Rain 74 23.3 66 18.9 76 76 ESE 5 7 29.91 1013 10 16 0.00 0.00
5:53 am 05:53 Mostly Clear 75 23.9 63 17.2 66 66 Calm 29.93 1013 10 16 0.00 0.00
6:53 am 06:53 Sunny 72 22.2 64 17.8 76 76 NNE 6 9 29.92 1013 10 16 0.00 0.00
7:53 am 07:53 Sunny 77 25 64 17.8 64 64 NE 5 7 29.92 1013 10 16 0.00 0.00
8:53 am 08:53 Sunny 78 25.6 66 18.9 67 67 Calm 29.93 1014 10 16 0.00 0.00
9:53 am 09:53 Sunny 81 27.2 67 19.4 62 62 SW 5 7 29.94 1014 10 16 0.00 0.00
10:53 am 10:53 Sunny 83 28.3 68 20 61 61 ESE 3 6 29.93 1014 10 16 0.00 0.00
11:53 am 11:53 Partly Cloudy 84 28.9 68 20 59 59 SW 3 6 29.93 1014 10 16 0.00 0.00
12:53 pm 12:53 Sunny 88 31.1 67 19.4 50 50 SSE 3 6 29.91 1013 10 16 0.00 0.00
1:53 pm 13:53 Sunny 92 33.3 66 18.9 43 43 VRB 3 6 29.88 1012 10 16 0.00 0.00
3:53 pm 15:53 Sunny 95 35 62 16.7 34 34 Calm 29.84 1011 10 16 0.00 0.00
4:53 pm 16:53 Sunny 96 35.6 63 17.2 34 34 SSE 7 11 29.81 1010 10 16 0.00 0.00
5:53 pm 17:53 Mostly Sunny 97 36.1 63 17.2 33 33 Calm 29.79 1009 10 16 0.00 0.00
6:53 pm 18:53 Mostly Sunny 98 36.7 62 16.7 31 31 WNW 8 13 29.78 1009 10 16 0.00 0.00
7:53 pm 19:53 Sunny 93 33.9 63 17.2 37 37 N 17 28 29.78 1008 10 16 0.00 0.00
8:03 pm 20:03 Sunny 90 32.2 64 17.8 42 42 NNE 15 24 29.68 1005 10 16 0.00 0.00
8:53 pm 20:53 Sunny with Light Rain 82 27.8 66 18.9 58 58 ENE 13 20 29.83 1010 10 16 0.00 0.00
9:53 pm 21:53 Clear 76 24.4 65 18.3 69 69 ENE 8 13 29.89 1012 10 16 0.00 0.00
10:53 pm 22:53 Clear 70 21.1 64 17.8 82 82 NNW 3 6 29.90 1013 10 16 0.00 0.00
11:53 pm 23:53 Clear 70 21.1 63 17.2 79 79 NNE 6 9 29.92 1013 10 16 0.00 0.00

Powered by AerisWeather